GSAT-7

Last updated on Tue Mar 03 2026 00:02:51 GMT+0000 (Coordinated Universal Time)

1 39234U 13044B 26061.61616524 -.00000094 00000+0 00000+0 0 9991 2 39234 0.0166 112.6057 0006746 179.8765 163.7150 1.00271206 44183
UTC large
Height (km)
Speed (km/s)
/
Latitude / Longitude
Inclination (degrees)
Orbital Period (minutes)
Azimuth
Elevation
Range (km)
Doppler Factor

Next 0 passes for location: London (51.5072 / 0.1276)

Sorry there are no passes over London.